Weather History for Nakika, MS

Change the Weather History Date:

Monday, May 26, 2014

  Actual Average Record
Temperature  
Mean Temperature 78 °F -  
Max Temperature 80 °F - - ()
Min Temperature 77 °F - - ()
Cooling Degree Days 14    
Growing Degree Days 28 (Base 50)    
Moisture  
Dew Point 72 °F    
Average Humidity 80    
Maximum Humidity 84    
Minimum Humidity 74    
Precipitation  
Precipitation 0.00 in - - ()
Sea Level Pressure  
Sea Level Pressure 30.10 in    
Wind  
Wind Speed 8 mph (SE)    
Max Wind Speed 15 mph    
Max Gust Speed 15 mph    
Visibility 10 miles    
Events      
T = Trace of Precipitation, MM = Missing Value Source: NWS Daily Summary

Daily Weather History Graph

Daily Weather History Graph

Search for Another Location

Airport:

Trip Planner

Search our weather history database for the weather conditions in past years. The results will help you decide how hot, cold, wet, or windy it might be!

Date:

Astronomy

May. 26, 2014 Rise Set
Actual Time 5:57 AM CDT 7:43 PM CDT
Civil Twilight 5:31 AM CDT 8:09 PM CDT
Nautical Twilight 4:59 AM CDT 8:41 PM CDT
Astronomical Twilight 4:26 AM CDT 9:14 PM CDT
Moon 4:27 AM CDT (5/26) 5:55 PM CDT (5/26)
Length of Visible Light 14h 38m
Length of Day
13h 45m
Waning Crescent, 5% of the Moon is Illuminated
May 26
Waning Crescent
May 28
New
Jun 5
First Quarter
Jun 12
Full
Jun 19
Last Quarter

Hourly Weather History & Observations

Time (CDT) Temp. Heat Index Dew Point Humidity Pressure Visibility Wind Dir Wind Speed Gust Speed Precip Events Conditions
12:00 AM 77.0 °F - 69.8 °F 78% 30.08 in 10.0 mi SSE 5.8 mph - N/A   Mostly Cloudy
12:20 AM 77.0 °F - 69.8 °F 78% 30.08 in 10.0 mi SSE 5.8 mph - N/A   Scattered Clouds
12:40 AM 77.0 °F - 69.8 °F 78% 30.08 in 10.0 mi SSE 8.1 mph - N/A   Mostly Cloudy
1:00 AM 77.0 °F - 68.0 °F 74% 30.08 in 10.0 mi SSE 5.8 mph 11.5 mph N/A   Mostly Cloudy
1:20 AM 77.0 °F - 68.0 °F 74% 30.08 in 10.0 mi SSE 4.6 mph - N/A   Mostly Cloudy
1:40 AM 77.0 °F - 68.0 °F 74% 30.08 in 10.0 mi SSE 5.8 mph - N/A   Overcast
2:00 AM 77.0 °F - 68.0 °F 74% 30.07 in 10.0 mi SSE 6.9 mph - N/A   Mostly Cloudy
2:20 AM 77.0 °F - 69.8 °F 78% 30.07 in 10.0 mi Variable 5.8 mph - N/A   Mostly Cloudy
2:40 AM 77.0 °F - 69.8 °F 78% 30.06 in 10.0 mi SSW 6.9 mph - N/A   Partly Cloudy
3:00 AM 77.0 °F - 69.8 °F 78% 30.07 in 10.0 mi South 6.9 mph - N/A   Partly Cloudy
3:20 AM 77.0 °F - 69.8 °F 78% 30.07 in 10.0 mi SSW 5.8 mph - N/A   Partly Cloudy
3:40 AM 77.0 °F - 69.8 °F 78% 30.07 in 10.0 mi South 6.9 mph - N/A   Clear
4:00 AM 77.0 °F - 69.8 °F 78% 30.08 in 10.0 mi SSE 4.6 mph - N/A   Clear
4:20 AM 77.0 °F - 69.8 °F 78% 30.09 in 10.0 mi ESE 6.9 mph - N/A   Partly Cloudy
4:40 AM 77.0 °F - 69.8 °F 78% 30.09 in 10.0 mi ESE 5.8 mph - N/A   Clear
5:00 AM 77.0 °F - 69.8 °F 78% 30.09 in 10.0 mi SE 5.8 mph - N/A   Clear
5:20 AM 77.0 °F - 69.8 °F 78% 30.09 in 10.0 mi SSE 4.6 mph - N/A   Clear
5:40 AM 77.0 °F - 71.6 °F 83% 30.10 in 10.0 mi South 5.8 mph - N/A   Clear
6:00 AM 77.0 °F - 71.6 °F 83% 30.10 in 10.0 mi South 4.6 mph - N/A   Clear
6:20 AM 77.0 °F - 71.6 °F 83% 30.11 in 10.0 mi SE 6.9 mph - N/A   Clear
6:40 AM 77.0 °F - 71.6 °F 83% 30.12 in 10.0 mi Variable 4.6 mph - N/A   Clear
7:00 AM 77.0 °F - 71.6 °F 83% 30.12 in 10.0 mi SE 5.8 mph - N/A   Clear
7:20 AM 77.0 °F - 71.6 °F 83% 30.12 in 10.0 mi SE 5.8 mph - N/A   Clear
7:40 AM 78.8 °F - 71.6 °F 78% 30.13 in 10.0 mi East 8.1 mph - N/A   Clear
8:00 AM 78.8 °F - 71.6 °F 78% 30.14 in 10.0 mi ESE 8.1 mph - N/A   Clear
8:20 AM 80.6 °F 84.6 °F 71.6 °F 74% 30.14 in 10.0 mi ESE 5.8 mph - N/A   Clear
8:40 AM 80.6 °F 84.6 °F 71.6 °F 74% 30.14 in 10.0 mi ESE 5.8 mph - N/A   Clear
9:00 AM 80.6 °F 84.6 °F 71.6 °F 74% 30.15 in 10.0 mi ESE 6.9 mph - N/A   Clear
9:20 AM 80.6 °F 84.6 °F 71.6 °F 74% 30.15 in 10.0 mi East 6.9 mph - N/A   Scattered Clouds
9:40 AM 80.6 °F 84.6 °F 71.6 °F 74% 30.15 in 10.0 mi ESE 9.2 mph - N/A   Mostly Cloudy
10:20 AM 80.6 °F 85.4 °F 73.4 °F 79% 30.14 in 10.0 mi East 11.5 mph - N/A   Partly Cloudy
10:40 AM 80.6 °F 85.4 °F 73.4 °F 79% 30.14 in 10.0 mi East 11.5 mph - N/A   Partly Cloudy
11:00 AM 80.6 °F 85.4 °F 73.4 °F 79% 30.15 in 10.0 mi East 12.7 mph - N/A   Partly Cloudy
11:20 AM 80.6 °F 85.4 °F 73.4 °F 79% 30.15 in 10.0 mi East 11.5 mph - N/A   Clear
12:00 PM 80.6 °F 85.4 °F 73.4 °F 79% 30.14 in 10.0 mi East 11.5 mph - N/A   Clear
12:20 PM 80.6 °F 85.4 °F 73.4 °F 79% 30.14 in 10.0 mi East 11.5 mph - N/A   Clear
12:40 PM 80.6 °F 85.4 °F 73.4 °F 79% 30.13 in 10.0 mi ESE 11.5 mph - N/A   Clear
1:20 PM 80.6 °F 85.4 °F 73.4 °F 79% 30.12 in 10.0 mi ESE 12.7 mph - N/A   Clear
1:40 PM 80.6 °F 85.4 °F 73.4 °F 79% 30.12 in 10.0 mi ESE 12.7 mph - N/A   Clear
2:00 PM 80.6 °F 85.4 °F 73.4 °F 79% 30.12 in 10.0 mi East 13.8 mph - N/A   Clear
2:20 PM 80.6 °F 85.4 °F 73.4 °F 79% 30.11 in 10.0 mi ESE 11.5 mph - N/A   Partly Cloudy
2:40 PM 80.6 °F 86.2 °F 75.2 °F 84% 30.10 in 10.0 mi ESE 13.8 mph - N/A   Partly Cloudy
3:00 PM 80.6 °F 85.4 °F 73.4 °F 79% 30.10 in 10.0 mi ESE 13.8 mph - N/A   Partly Cloudy
3:20 PM 80.6 °F 85.4 °F 73.4 °F 79% 30.10 in 10.0 mi ESE 15.0 mph - N/A   Partly Cloudy
3:40 PM 80.6 °F 86.2 °F 75.2 °F 84% 30.09 in 10.0 mi ESE 12.7 mph - N/A   Clear
4:20 PM 80.6 °F 85.4 °F 73.4 °F 79% 30.09 in 10.0 mi SE 11.5 mph - N/A   Partly Cloudy
4:40 PM 80.6 °F 85.4 °F 73.4 °F 79% 30.08 in 10.0 mi SE 12.7 mph - N/A   Partly Cloudy
5:00 PM 80.6 °F 85.4 °F 73.4 °F 79% 30.08 in 10.0 mi SSE 11.5 mph - N/A   Scattered Clouds
5:20 PM 80.6 °F 85.4 °F 73.4 °F 79% 30.08 in 10.0 mi SE 11.5 mph - N/A   Partly Cloudy
5:40 PM 78.8 °F - 73.4 °F 83% 30.07 in 10.0 mi SE 11.5 mph - N/A   Scattered Clouds
6:00 PM 78.8 °F - 73.4 °F 83% 30.08 in 10.0 mi SE 9.2 mph - N/A   Partly Cloudy
6:20 PM 78.8 °F - 73.4 °F 83% 30.08 in 10.0 mi SE 11.5 mph - N/A   Scattered Clouds
6:40 PM 78.8 °F - 73.4 °F 83% 30.07 in 10.0 mi SE 10.4 mph - N/A   Partly Cloudy
7:00 PM 78.8 °F - 73.4 °F 83% 30.08 in 10.0 mi SSE 9.2 mph - N/A   Partly Cloudy
7:20 PM 78.8 °F - 73.4 °F 83% 30.08 in 10.0 mi SSE 10.4 mph - N/A   Partly Cloudy
7:40 PM 78.8 °F - 73.4 °F 83% 30.08 in 10.0 mi SE 11.5 mph - N/A   Clear
8:00 PM 78.8 °F - 73.4 °F 83% 30.09 in 10.0 mi Variable 6.9 mph - N/A   Clear
8:20 PM 78.8 °F - 73.4 °F 83% 30.09 in 10.0 mi SSE 6.9 mph - N/A   Clear
8:40 PM 78.8 °F - 73.4 °F 83% 30.10 in - SE 9.2 mph - N/A   Clear
9:00 PM 78.8 °F - 73.4 °F 83% 30.11 in 10.0 mi SE 10.4 mph - N/A   Clear
9:20 PM 78.8 °F - 73.4 °F 83% 30.11 in 10.0 mi SE 11.5 mph - N/A   Clear
9:40 PM 78.8 °F - 73.4 °F 83% 30.12 in 10.0 mi SSE 9.2 mph - N/A   Clear
10:00 PM 78.8 °F - 73.4 °F 83% 30.12 in 10.0 mi SE 12.7 mph - N/A   Clear
10:20 PM 78.8 °F - 73.4 °F 83% 30.12 in 10.0 mi SE 13.8 mph - N/A   Partly Cloudy
10:40 PM 78.8 °F - 73.4 °F 83% 30.12 in 10.0 mi SE 12.7 mph - N/A   Scattered Clouds
11:00 PM 78.8 °F - 73.4 °F 83% 30.12 in 10.0 mi SSE 6.9 mph 15.0 mph N/A   Mostly Cloudy
11:20 PM 78.8 °F - 73.4 °F 83% 30.12 in 10.0 mi SE 12.7 mph - N/A   Mostly Cloudy
11:40 PM 78.8 °F - 73.4 °F 83% 30.12 in 10.0 mi SE 12.7 mph - N/A   Scattered Clouds